Oakland, MD

3:26 PM EDT on July 24, 2017 (GMT -0400)
Oakland

Weather History for K2G4 - October, 2012

Change the Weather History Date:

Monday, October 22, 2012

  Actual Average (KMGW) Record (KMGW)
Temperature  
Mean Temperature 53 °F -  
Max Temperature 64 °F 63 °F 84 °F (1979)
Min Temperature 42 °F 42 °F 27 °F (1952)
Degree Days  
Heating Degree Days 12    
Growing Degree Days 3 (Base 50)    
Moisture  
Dew Point 42 °F    
Average Humidity 67    
Maximum Humidity 81    
Minimum Humidity 49    
Precipitation  
Precipitation 0.00 in - - ()
Sea Level Pressure  
Sea Level Pressure 30.18 in    
Wind  
Wind Speed 7 mph (West)    
Max Wind Speed 10 mph    
Max Gust Speed 16 mph    
Visibility 10 miles    
Events      
Averages and records for this station are not official NWS values.
T = Trace of Precipitation, MM = Missing Value Source: NWS Daily Summary

Daily Weather History Graph

Daily Weather History Graph

Search for Another Location

Airport or City:

Trip Planner

Search our weather history database for the weather conditions in past years. The results will help you decide how hot, cold, wet, or windy it might be!

Date:

Astronomy

Oct. 22, 2012 Rise Set
Actual Time 7:35 AM EDT 6:27 PM EDT
Civil Twilight 7:07 AM EDT 6:55 PM EDT
Nautical Twilight 6:36 AM EDT 7:26 PM EDT
Astronomical Twilight 6:05 AM EDT 7:57 PM EDT
Moon 2:33 PM EDT (10/22) 12:21 AM EDT (10/22)
Length of Visible Light 11h 47m
Length of Day
10h 52m
First Quarter, 56% of the Moon is Illuminated
Oct 22
First Quarter
Oct 29
Full
Nov 6
Last Quarter
Nov 13
New
Nov 20
First Quarter

Hourly Weather History & Observations

Time (EDT) Temp. Windchill Dew Point Humidity Pressure Visibility Wind Dir Wind Speed Gust Speed Precip Events Conditions
12:05 AM 42.8 °F 38.6 °F 37.4 °F 81% 30.15 in 10.0 mi WSW 6.9 mph - N/A   Clear
12:25 AM 42.8 °F 38.6 °F 37.4 °F 81% 30.15 in 10.0 mi WSW 6.9 mph - N/A   Clear
12:45 AM 42.8 °F 39.3 °F 37.4 °F 81% 30.15 in 10.0 mi West 5.8 mph - N/A   Clear
1:05 AM 42.8 °F 40.1 °F 37.4 °F 81% 30.15 in 10.0 mi WSW 4.6 mph - N/A   Clear
1:30 AM 42.8 °F 39.3 °F 37.4 °F 81% 30.16 in 10.0 mi West 5.8 mph - N/A   Clear
1:50 AM 42.8 °F 38.6 °F 37.4 °F 81% 30.16 in 10.0 mi WSW 6.9 mph - N/A   Clear
2:10 AM 42.8 °F 38.6 °F 37.4 °F 81% 30.15 in 10.0 mi WSW 6.9 mph - N/A   Clear
2:55 AM 42.8 °F 38.6 °F 37.4 °F 81% 30.15 in 10.0 mi WSW 6.9 mph - N/A   Clear
3:15 AM 42.8 °F 38.0 °F 37.4 °F 81% 30.15 in 10.0 mi WSW 8.1 mph - N/A   Clear
3:55 AM 42.8 °F 38.0 °F 37.4 °F 81% 30.15 in 10.0 mi WSW 8.1 mph - N/A   Clear
4:20 AM 42.8 °F 38.0 °F 37.4 °F 81% 30.15 in 10.0 mi WSW 8.1 mph - N/A   Clear
4:40 AM 42.8 °F 37.0 °F 37.4 °F 81% 30.16 in 10.0 mi West 10.4 mph - N/A   Clear
5:00 AM 42.8 °F 37.0 °F 37.4 °F 81% 30.16 in 10.0 mi WSW 10.4 mph 16.1 mph N/A   Clear
5:45 AM 44.6 °F 39.7 °F 37.4 °F 76% 30.17 in 10.0 mi West 9.2 mph - N/A   Clear
6:05 AM 44.6 °F 40.2 °F 37.4 °F 76% 30.17 in 10.0 mi West 8.1 mph - N/A   Clear
6:25 AM 44.6 °F 39.7 °F 37.4 °F 76% 30.18 in 10.0 mi West 9.2 mph - N/A   Clear
7:10 AM 44.6 °F 40.2 °F 35.6 °F 71% 30.19 in 10.0 mi West 8.1 mph - N/A   Clear
7:30 AM 44.6 °F 40.2 °F 35.6 °F 71% 30.19 in 10.0 mi West 8.1 mph - N/A   Clear
7:50 AM 44.6 °F 39.7 °F 35.6 °F 71% 30.20 in 10.0 mi West 9.2 mph - N/A   Clear
8:15 AM 44.6 °F 40.2 °F 37.4 °F 76% 30.21 in 10.0 mi West 8.1 mph - N/A   Clear
8:35 AM 46.4 °F 42.4 °F 37.4 °F 71% 30.21 in 10.0 mi WSW 8.1 mph - N/A   Clear
8:55 AM 46.4 °F 41.9 °F 37.4 °F 71% 30.21 in 10.0 mi WSW 9.2 mph - N/A   Clear
9:20 AM 48.2 °F - 39.2 °F 71% 30.21 in 10.0 mi WSW 6.9 mph - N/A   Clear
9:40 AM 50.0 °F - 41.0 °F 71% 30.21 in 10.0 mi WSW 5.8 mph - N/A   Clear
10:05 AM 51.8 °F - 41.0 °F 67% 30.21 in 10.0 mi West 5.8 mph - N/A   Clear
10:25 AM 53.6 °F - 42.8 °F 67% 30.21 in 10.0 mi West 5.8 mph - N/A   Clear
10:45 AM 53.6 °F - 42.8 °F 67% 30.21 in 10.0 mi WNW 5.8 mph - N/A   Clear
11:05 AM 55.4 °F - 42.8 °F 63% 30.21 in 10.0 mi West 6.9 mph - N/A   Clear
11:30 AM 57.2 °F - 42.8 °F 59% 30.22 in 10.0 mi West 8.1 mph - N/A   Clear
11:50 AM 59.0 °F - 42.8 °F 55% 30.22 in 10.0 mi West 5.8 mph - N/A   Clear
12:10 PM 59.0 °F - 42.8 °F 55% 30.22 in 10.0 mi WNW 8.1 mph - N/A   Clear
12:30 PM 60.8 °F - 42.8 °F 52% 30.22 in 10.0 mi West 9.2 mph - N/A   Clear
12:55 PM 60.8 °F - 42.8 °F 52% 30.20 in 10.0 mi WNW 6.9 mph - N/A   Clear
1:15 PM 60.8 °F - 42.8 °F 52% 30.20 in 10.0 mi West 4.6 mph - N/A   Clear
1:35 PM - - - %  in - Calm Calm - -  
1:55 PM - - - %  in - Calm Calm - -  
2:20 PM 62.6 °F - 44.6 °F 52% 30.18 in - NW 6.9 mph - N/A   Unknown
2:40 PM 62.6 °F - 44.6 °F 52% 30.18 in 10.0 mi West 8.1 mph - N/A   Clear
3:00 PM 62.6 °F - 44.6 °F 52% 30.18 in 10.0 mi WNW 6.9 mph - N/A   Clear
3:20 PM 64.4 °F - 44.6 °F 49% 30.18 in 10.0 mi WNW 4.6 mph - N/A   Clear
4:05 PM 64.4 °F - 46.4 °F 52% 30.17 in 10.0 mi West 4.6 mph - N/A   Clear
4:25 PM 64.4 °F - 46.4 °F 52% 30.18 in 10.0 mi West 6.9 mph - N/A   Clear
4:45 PM 64.4 °F - 46.4 °F 52% 30.17 in 10.0 mi West 5.8 mph - N/A   Clear
5:10 PM 64.4 °F - 46.4 °F 52% 30.18 in 10.0 mi WNW 6.9 mph - N/A   Clear
5:30 PM 62.6 °F - 46.4 °F 55% 30.19 in 10.0 mi West 6.9 mph - N/A   Clear
5:50 PM 62.6 °F - 46.4 °F 55% 30.19 in 10.0 mi West 8.1 mph - N/A   Clear
6:10 PM 60.8 °F - 46.4 °F 59% 30.19 in 10.0 mi West 5.8 mph - N/A   Clear
6:35 PM 59.0 °F - 48.2 °F 67% 30.19 in 10.0 mi WSW 4.6 mph - N/A   Clear
6:55 PM 59.0 °F - 48.2 °F 67% 30.19 in 10.0 mi WSW 6.9 mph - N/A   Clear
7:15 PM 59.0 °F - 48.2 °F 67% 30.19 in 10.0 mi WSW 6.9 mph - N/A   Clear
7:35 PM 59.0 °F - 48.2 °F 67% 30.20 in 10.0 mi WSW 6.9 mph - N/A   Clear
8:20 PM 59.0 °F - 48.2 °F 67% 30.19 in 10.0 mi WSW 6.9 mph - N/A   Clear
8:40 PM 59.0 °F - 48.2 °F 67% 30.19 in 10.0 mi WSW 8.1 mph - N/A   Clear
9:00 PM 59.0 °F - 48.2 °F 67% 30.19 in 10.0 mi WSW 6.9 mph - N/A   Clear
9:25 PM 59.0 °F - 48.2 °F 67% 30.19 in 10.0 mi SW 8.1 mph - N/A   Clear
9:45 PM 59.0 °F - 48.2 °F 67% 30.18 in 10.0 mi SW 8.1 mph - N/A   Clear
10:50 PM 57.2 °F - 48.2 °F 72% 30.18 in 10.0 mi WSW 6.9 mph - N/A   Clear
11:10 PM 59.0 °F - 48.2 °F 67% 30.18 in 10.0 mi SW 8.1 mph - N/A   Clear
11:30 PM 57.2 °F - 48.2 °F 72% 30.19 in 10.0 mi SW 6.9 mph - N/A   Clear
11:50 PM 57.2 °F - 48.2 °F 72% 30.18 in 10.0 mi SW 8.1 mph - N/A   Clear